Regional Weather Roundup
Issued by NWS

Home | Current Version | Previous Version | Text Only | Print | Product List | Glossary On
Versions: 1 2 3 4 5 6 7 8 9 10 11 12 13 14 15 16 17 18 19 20 21 22 23 24 25 26 27
000
ASPQ40 PGUM 242310
RWRPQ
WEATHER ROUNDUP FOR THE MARIANAS AND MICRONESIA
NATIONAL WEATHER SERVICE TIYAN GU
900 AM CHST FRI MAY 25 2018

GUZ001>004-250000-
MARIANA ISLANDS-

CITY           SKY/WX    TMP DP  RH WIND       PRES   REMARKS
GUAM AIRPORT   PTSUNNY   84  81  89 E6        29.87S HX  98
ANDERSEN AFB   MOSUNNY   86  81  84 E9        29.88S HX 102
ROTA AIRPORT   MOSUNNY   82  77  83 E7        29.87R HX  91
TINIAN AP      LGT RAIN  81  75  83 E8        29.85R
SAIPAN AP      MOSUNNY   84  79  84 SE10      29.87R HX  96

$$

PMZ161-250000-
REPUBLIC OF PALAU-

CITY           SKY/WX    TMP DP  RH WIND       PRES   REMARKS
KOROR AP       NOT AVBL
KOROR WSO      CLOUDY    86  79  79 CALM      29.80R HX  99

$$

PMZ171>174-250000-
FEDERATED STATES OF MICRONESIA-

CITY           SKY/WX    TMP DP  RH WIND       PRES   REMARKS
YAP AIRPORT    PTSUNNY   88  79  74 E8        29.80S HX 102
CHUUK AP       CLOUDY    86  84  94 VRB5      29.81S HX 108
POHNPEI AP     CLOUDY    88  77  70 NE6       29.82R HX 100
POHNPEI WSO    CLOUDY    84  79  84 NE3       29.85S HX  96
KOSRAE AP      CLOUDY    88  77  70 SE9       29.80F HX 100

$$

PMZ181-250000-
REPUBLIC OF THE MARSHALL ISLANDS-

CITY           SKY/WX    TMP DP  RH WIND       PRES   REMARKS
KWAJALEIN AP   SUNNY     86  77  74 E13       29.84S HX  97
MAJURO AP      NOT AVBL
MAJURO WSO     MOSUNNY   86  77  74 E10       29.82F HX  97

$$





USA.gov is the U.S. government's official web portal to all federal, state and local government web resources and services.